DAL982 YSSY-KSEA

Flight info

Callsign DAL982
Flight time N/A
Altitude 35000
Route NOBAR B474 ATRAS/N0496F370 B474 ARVII/N0489F390 B474 ADOWA DCT 18N163W DCT 21N60 DCT ZOULU A331 ZEMOM/N0478F410 A331 SEDAR DCT LATAY HAWKZ8
Aircraft A359/H-SDE2E3GHIJ3J4J5LM1ORWXY/LB1D1

Departure

Time 2026-04-24 13:06
Airport Sydney Kingsford Smith International Airport (YSSY)

Arrival

Time N/A
Airport Seattle–Tacoma International Airport (KSEA)
Time Latitude Longitude Altitude Speed Heading
2026-04-24 12:42 -33.93477 151.16798 36 ft 0 kts 258°
2026-04-24 12:53 -33.93474 151.16818 36 ft 4 kts 261°
2026-04-24 12:54 -33.93471 151.16850 36 ft 4 kts 270°
2026-04-24 12:54 -33.93473 151.16882 34 ft 4 kts 283°
2026-04-24 12:54 -33.93483 151.16910 33 ft 4 kts 318°
2026-04-24 12:54 -33.93493 151.16919 32 ft 0 kts 347°
2026-04-24 13:00 -33.93486 151.16917 36 ft 3 kts 347°
2026-04-24 13:00 -33.93440 151.16905 36 ft 10 kts 348°
2026-04-24 13:00 -33.93348 151.16889 36 ft 16 kts
2026-04-24 13:00 -33.93233 151.16944 36 ft 18 kts 10°
2026-04-24 13:01 -33.93107 151.16925 36 ft 18 kts 349°
2026-04-24 13:01 -33.93011 151.16919 34 ft 0 kts 23°
2026-04-24 13:01 -33.92998 151.16935 36 ft 7 kts 50°
2026-04-24 13:02 -33.92975 151.17007 35 ft 10 kts 74°
2026-04-24 13:02 -33.92972 151.17019 36 ft 0 kts 74°
2026-04-24 13:03 -33.92972 151.17020 36 ft 1 kts 74°
2026-04-24 13:03 -33.92965 151.17056 37 ft 8 kts 79°
2026-04-24 13:04 -33.92967 151.17148 37 ft 12 kts 118°
2026-04-24 13:04 -33.93016 151.17179 36 ft 0 kts 166°
2026-04-24 13:05 -33.93188 151.17227 37 ft 54 kts 168°
2026-04-24 13:05 -33.93739 151.17364 32 ft 106 kts 168°
2026-04-24 13:05 -33.94601 151.17585 36 ft 149 kts 168°
2026-04-24 13:06 -33.95701 151.17877 369 ft 153 kts 168°
2026-04-24 13:06 -33.96645 151.18221 1053 ft 137 kts 158°
2026-04-24 13:06 -33.97549 151.18628 1207 ft 142 kts 156°
2026-04-24 13:06 -33.98487 151.19111 1330 ft 150 kts 154°
2026-04-24 13:07 -33.99400 151.19712 1531 ft 153 kts 143°
2026-04-24 13:07 -34.00121 151.20680 1633 ft 163 kts 104°
2026-04-24 13:07 -33.99942 151.22028 1716 ft 175 kts 52°
2026-04-24 13:07 -33.99000 151.23046 1896 ft 191 kts 34°
2026-04-24 13:08 -33.97912 151.24075 2069 ft 209 kts 50°
2026-04-24 13:08 -33.97033 151.25567 2280 ft 227 kts 59°
2026-04-24 13:08 -33.96256 151.27307 2538 ft 244 kts 64°
2026-04-24 13:09 -33.94848 151.31151 3575 ft 254 kts 67°
2026-04-24 13:09 -33.94157 151.33117 4160 ft 256 kts 66°
2026-04-24 13:09 -33.93452 151.35085 4741 ft 256 kts 66°
2026-04-24 13:09 -33.92728 151.37056 5312 ft 259 kts 66°
2026-04-24 13:10 -33.91986 151.39041 5889 ft 261 kts 65°
2026-04-24 13:10 -33.91240 151.41015 6436 ft 264 kts 65°
2026-04-24 13:10 -33.90471 151.43036 7030 ft 266 kts 65°
2026-04-24 13:10 -33.89693 151.45075 7606 ft 269 kts 65°
2026-04-24 13:11 -33.88910 151.47125 8199 ft 271 kts 65°
2026-04-24 13:11 -33.88120 151.49195 8786 ft 273 kts 66°
2026-04-24 13:11 -33.87324 151.51281 9400 ft 275 kts 66°
2026-04-24 13:11 -33.86521 151.53385 10011 ft 278 kts 66°
2026-04-24 13:12 -33.85703 151.55532 10397 ft 289 kts 66°
2026-04-24 13:12 -33.84844 151.57783 10626 ft 304 kts 66°
2026-04-24 13:12 -33.83940 151.60154 10864 ft 318 kts 66°
2026-04-24 13:12 -33.82995 151.62630 11103 ft 332 kts 66°
2026-04-24 13:13 -33.82011 151.65203 11330 ft 346 kts 66°
2026-04-24 13:13 -33.80987 151.67880 11554 ft 358 kts 66°
2026-04-24 13:13 -33.79910 151.70638 11781 ft 370 kts 64°
2026-04-24 13:13 -33.78566 151.73329 12086 ft 380 kts 56°
2026-04-24 13:14 -33.76854 151.75765 12543 ft 385 kts 48°
2026-04-24 13:14 -33.74948 151.78044 12996 ft 389 kts 45°
2026-04-24 13:14 -33.72944 151.80251 13457 ft 392 kts 44°
2026-04-24 13:14 -33.70887 151.82424 13922 ft 396 kts 43°
2026-04-24 13:15 -33.68798 151.84601 14368 ft 399 kts 43°
2026-04-24 13:15 -33.66697 151.86789 14787 ft 401 kts 43°
2026-04-24 13:15 -33.64587 151.88999 15220 ft 404 kts 43°
2026-04-24 13:15 -33.62471 151.91230 15657 ft 406 kts 43°
2026-04-24 13:16 -33.60345 151.93478 16119 ft 408 kts 44°
2026-04-24 13:16 -33.58241 151.95710 16562 ft 411 kts 44°
2026-04-24 13:16 -33.56092 151.97991 17023 ft 413 kts 44°
2026-04-24 13:16 -33.53932 152.00284 17478 ft 416 kts 44°
2026-04-24 13:17 -33.51759 152.02588 17934 ft 418 kts 43°
2026-04-24 13:17 -33.49572 152.04905 18390 ft 421 kts 43°
2026-04-24 13:17 -33.47369 152.07236 18830 ft 424 kts 43°
2026-04-24 13:17 -33.45149 152.09584 19209 ft 427 kts 43°
2026-04-24 13:18 -33.42915 152.11944 19578 ft 430 kts 43°
2026-04-24 13:18 -33.40665 152.14318 20001 ft 432 kts 44°
2026-04-24 13:18 -33.38405 152.16702 20401 ft 434 kts 44°
2026-04-24 13:18 -33.36130 152.19101 20788 ft 437 kts 44°
2026-04-24 13:19 -33.33839 152.21514 21191 ft 440 kts 44°
2026-04-24 13:19 -33.31532 152.23943 21586 ft 443 kts 44°
2026-04-24 13:19 -33.29206 152.26390 22000 ft 446 kts 44°
2026-04-24 13:19 -33.26867 152.28848 22394 ft 449 kts 44°
2026-04-24 13:20 -33.25309 152.30486 22667 ft 451 kts 44°
2026-04-24 13:20 -33.22941 152.32971 23079 ft 454 kts 44°
2026-04-24 13:20 -33.20562 152.35466 23488 ft 457 kts 44°
2026-04-24 13:20 -33.18163 152.37980 23882 ft 460 kts 44°
2026-04-24 13:21 -33.15750 152.40508 24237 ft 463 kts 44°
2026-04-24 13:21 -33.13319 152.43052 24578 ft 466 kts 44°
2026-04-24 13:21 -33.10877 152.45607 24923 ft 468 kts 44°
2026-04-24 13:21 -33.08414 152.48180 25259 ft 471 kts 44°
2026-04-24 13:22 -33.05945 152.50758 25585 ft 473 kts 44°
2026-04-24 13:22 -33.03486 152.53323 25928 ft 475 kts 44°
2026-04-24 13:22 -33.00997 152.55917 26325 ft 476 kts 44°
2026-04-24 13:22 -32.98499 152.58519 26640 ft 478 kts 44°
2026-04-24 13:23 -32.95988 152.61133 26938 ft 481 kts 44°
2026-04-24 13:23 -32.93457 152.63766 27255 ft 484 kts 44°
2026-04-24 13:23 -32.90916 152.66407 27556 ft 486 kts 44°
2026-04-24 13:23 -32.88359 152.69062 27863 ft 488 kts 44°
2026-04-24 13:24 -32.85793 152.71725 28155 ft 491 kts 44°
2026-04-24 13:24 -32.83214 152.74398 28450 ft 493 kts 44°
2026-04-24 13:24 -32.80625 152.77081 28731 ft 495 kts 44°
2026-04-24 13:24 -32.78021 152.79776 29010 ft 497 kts 44°
2026-04-24 13:25 -32.75408 152.82478 29263 ft 499 kts 44°
2026-04-24 13:25 -32.72790 152.85184 29648 ft 498 kts 44°
2026-04-24 13:25 -32.70180 152.87876 30104 ft 496 kts 44°
2026-04-24 13:25 -32.67605 152.90532 30444 ft 496 kts 44°
2026-04-24 13:26 -32.65002 152.93215 30753 ft 496 kts 44°
2026-04-24 13:26 -32.62397 152.95898 31044 ft 495 kts 44°
2026-04-24 13:26 -32.59795 152.98576 31304 ft 495 kts 44°
2026-04-24 13:26 -32.57185 153.01261 31553 ft 495 kts 44°
2026-04-24 13:27 -32.54583 153.03935 31791 ft 496 kts 44°
2026-04-24 13:27 -32.51976 153.06612 32031 ft 496 kts 44°
2026-04-24 13:27 -32.49365 153.09291 32266 ft 496 kts 44°
2026-04-24 13:27 -32.46753 153.11970 32495 ft 496 kts 44°
2026-04-24 13:28 -32.44146 153.14640 32767 ft 495 kts 44°
2026-04-24 13:28 -32.41542 153.17305 33049 ft 494 kts 44°
2026-04-24 13:28 -32.38942 153.19964 33250 ft 494 kts 44°
2026-04-24 13:28 -32.36340 153.22623 33451 ft 495 kts 44°
2026-04-24 13:29 -32.33734 153.25285 33643 ft 495 kts 44°
2026-04-24 13:29 -32.31132 153.27940 33847 ft 495 kts 44°
2026-04-24 13:29 -32.28525 153.30598 34034 ft 495 kts 44°
2026-04-24 13:29 -32.25916 153.33255 34234 ft 495 kts 45°
2026-04-24 13:30 -32.23309 153.35910 34400 ft 495 kts 45°
2026-04-24 13:30 -32.20692 153.38571 34568 ft 495 kts 45°
2026-04-24 13:30 -32.18081 153.41225 34708 ft 495 kts 45°
2026-04-24 13:30 -32.15469 153.43877 34865 ft 495 kts 45°
2026-04-24 13:31 -32.12861 153.46523 35073 ft 493 kts 45°
2026-04-24 13:31 -32.10261 153.49158 35220 ft 493 kts 45°
2026-04-24 13:31 -32.07658 153.51796 35335 ft 493 kts 44°
2026-04-24 13:31 -32.05048 153.54439 35357 ft 496 kts 44°
2026-04-24 13:32 -31.99821 153.59728 35418 ft 500 kts 44°
2026-04-24 13:32 -31.94533 153.65065 35435 ft 500 kts 44°
2026-04-24 13:33 -31.89244 153.70394 35434 ft 500 kts 44°
2026-04-24 13:33 -31.83954 153.75718 35445 ft 500 kts 44°
2026-04-24 13:34 -31.78669 153.81027 35431 ft 499 kts 44°
2026-04-24 13:34 -31.73381 153.86334 35433 ft 499 kts 44°
2026-04-24 13:35 -31.68132 153.91592 35430 ft 499 kts 44°
2026-04-24 13:35 -31.62841 153.96885 35432 ft 500 kts 44°
2026-04-24 13:36 -31.57548 154.02179 35427 ft 500 kts 44°
2026-04-24 13:36 -31.52245 154.07464 35423 ft 499 kts 44°
2026-04-24 13:37 -31.46951 154.12725 35425 ft 498 kts 44°
2026-04-24 13:37 -31.41668 154.17971 35417 ft 498 kts 44°
2026-04-24 13:38 -31.36415 154.23183 35423 ft 498 kts 44°
2026-04-24 13:38 -31.31128 154.28422 35420 ft 498 kts 44°
2026-04-24 13:39 -31.25837 154.33656 35418 ft 498 kts 44°
2026-04-24 13:39 -31.20552 154.38874 35416 ft 496 kts 44°
2026-04-24 13:40 -31.15288 154.44065 35418 ft 495 kts 44°
2026-04-24 13:40 -31.10019 154.49254 35414 ft 495 kts 44°
2026-04-24 13:41 -31.04751 154.54435 35415 ft 495 kts 44°
2026-04-24 13:41 -30.99525 154.59567 35409 ft 494 kts 44°
2026-04-24 13:42 -30.94260 154.64727 35409 ft 494 kts 44°
2026-04-24 13:42 -30.89002 154.69872 35410 ft 493 kts 44°
2026-04-24 13:43 -30.83746 154.75009 35407 ft 492 kts 44°
2026-04-24 13:43 -30.78499 154.80131 35406 ft 492 kts 44°
2026-04-24 13:44 -30.73248 154.85249 35403 ft 492 kts 43°
2026-04-24 13:44 -30.67995 154.90360 35399 ft 492 kts 43°
2026-04-24 13:45 -30.62776 154.95432 35399 ft 492 kts 43°
2026-04-24 13:45 -30.57516 155.00535 35399 ft 493 kts 43°
2026-04-24 13:46 -30.52256 155.05631 35389 ft 493 kts 43°
2026-04-24 13:46 -30.46987 155.10728 35384 ft 493 kts 43°
2026-04-24 13:47 -30.41720 155.15818 35389 ft 493 kts 43°
2026-04-24 13:47 -30.36447 155.20906 35387 ft 495 kts 42°
2026-04-24 13:48 -30.31150 155.26009 35385 ft 496 kts 42°
2026-04-24 13:48 -30.25844 155.31114 35380 ft 496 kts 42°
2026-04-24 13:49 -30.20541 155.36205 35384 ft 496 kts 42°
2026-04-24 13:49 -30.15261 155.41268 35378 ft 497 kts 41°
2026-04-24 13:50 -30.09924 155.46376 35378 ft 498 kts 40°
2026-04-24 13:50 -30.04583 155.51482 35374 ft 499 kts 41°
2026-04-24 13:51 -29.99239 155.56582 35373 ft 499 kts 41°
2026-04-24 13:51 -29.93887 155.61692 35377 ft 499 kts 39°
2026-04-24 13:52 -29.88537 155.66785 35371 ft 498 kts 39°
2026-04-24 13:52 -29.83193 155.71864 35362 ft 498 kts 39°
2026-04-24 13:53 -29.77885 155.76903 35362 ft 498 kts 39°
2026-04-24 13:53 -29.72541 155.81970 35358 ft 498 kts 39°
2026-04-24 13:54 -29.67196 155.87028 35352 ft 497 kts 39°
2026-04-24 13:54 -29.61846 155.92084 35355 ft 497 kts 39°
2026-04-24 13:55 -29.56510 155.97123 35345 ft 495 kts 38°
2026-04-24 13:55 -29.51198 156.02131 35349 ft 494 kts 38°
2026-04-24 13:56 -29.45875 156.07140 35344 ft 495 kts 39°
2026-04-24 13:56 -29.40547 156.12147 35348 ft 495 kts 38°
2026-04-24 13:57 -29.35255 156.17116 35343 ft 495 kts 39°
2026-04-24 13:57 -29.29926 156.22113 35330 ft 495 kts 39°
2026-04-24 13:58 -29.24580 156.27116 35329 ft 495 kts 38°
2026-04-24 13:58 -29.19253 156.32094 35330 ft 493 kts 38°
2026-04-24 13:59 -29.13938 156.37057 35327 ft 493 kts 38°
2026-04-24 13:59 -29.08660 156.41978 35328 ft 493 kts 38°
2026-04-24 14:00 -29.03343 156.46928 35312 ft 492 kts 37°
2026-04-24 14:00 -28.98024 156.51869 35327 ft 493 kts 38°
2026-04-24 14:01 -28.92693 156.56817 35321 ft 494 kts 38°
2026-04-24 14:01 -28.87357 156.61760 35318 ft 494 kts 36°
2026-04-24 14:02 -28.82013 156.66713 35315 ft 494 kts 36°
2026-04-24 14:02 -28.76707 156.71617 35316 ft 494 kts 36°
2026-04-24 14:03 -28.71368 156.76553 35314 ft 494 kts 36°
2026-04-24 14:03 -28.66025 156.81484 35311 ft 494 kts 36°
2026-04-24 14:04 -28.60677 156.86404 35309 ft 494 kts 37°
2026-04-24 14:04 -28.55338 156.91321 35302 ft 494 kts 36°
2026-04-24 14:05 -28.49989 156.96228 35305 ft 494 kts 36°
2026-04-24 14:05 -28.44638 157.01133 35304 ft 494 kts 36°
2026-04-24 14:06 -28.39277 157.06045 35303 ft 494 kts 35°
2026-04-24 14:06 -28.33924 157.10943 35299 ft 494 kts 36°
2026-04-24 14:07 -28.28596 157.15810 35298 ft 494 kts 35°
2026-04-24 14:07 -28.23236 157.20697 35298 ft 494 kts 35°
2026-04-24 14:08 -28.17871 157.25585 35295 ft 494 kts 35°
2026-04-24 14:08 -28.13420 157.29636 35294 ft 494 kts 35°
2026-04-24 14:09 -28.08063 157.34505 35287 ft 493 kts 35°
2026-04-24 14:09 -28.02712 157.39361 35293 ft 493 kts 35°
2026-04-24 14:10 -27.97363 157.44210 35281 ft 493 kts 35°
2026-04-24 14:10 -27.92013 157.49053 35287 ft 493 kts 35°
2026-04-24 14:11 -27.86665 157.53888 35279 ft 492 kts 34°
2026-04-24 14:12 -27.78674 157.61102 35270 ft 489 kts 34°
2026-04-24 14:12 -27.73357 157.65893 35279 ft 489 kts 34°
2026-04-24 14:13 -27.68040 157.70677 35276 ft 489 kts 34°
2026-04-24 14:13 -27.62759 157.75425 35269 ft 488 kts 33°
2026-04-24 14:14 -27.57441 157.80199 35262 ft 488 kts 33°
2026-04-24 14:14 -27.49462 157.87350 35243 ft 488 kts 33°
2026-04-24 14:15 -27.44159 157.92096 35256 ft 485 kts 33°
2026-04-24 14:15 -27.38885 157.96812 35253 ft 483 kts 32°
2026-04-24 14:16 -27.33651 158.01483 35247 ft 483 kts 32°
2026-04-24 14:17 -27.25751 158.08522 35244 ft 483 kts 32°
2026-04-24 14:17 -27.17844 158.15556 35221 ft 483 kts 32°
2026-04-24 14:18 -27.12576 158.20236 35240 ft 482 kts 32°
2026-04-24 14:18 -27.07324 158.24898 35241 ft 480 kts 31°
2026-04-24 14:19 -27.02082 158.29541 35235 ft 480 kts 31°
2026-04-24 14:19 -26.96849 158.34171 35235 ft 479 kts 31°
2026-04-24 14:20 -26.91601 158.38809 35223 ft 479 kts 31°
2026-04-24 14:20 -26.86400 158.43404 35230 ft 478 kts 31°
2026-04-24 14:21 -26.81173 158.48011 35229 ft 478 kts 31°
2026-04-24 14:21 -26.75940 158.52615 35229 ft 478 kts 31°
2026-04-24 14:22 -26.70698 158.57222 35227 ft 478 kts 31°
2026-04-24 14:23 -26.62840 158.64122 35225 ft 478 kts 30°
2026-04-24 14:23 -26.57608 158.68709 35224 ft 478 kts 30°
2026-04-24 14:24 -26.52408 158.73262 35223 ft 478 kts 30°
2026-04-24 14:24 -26.47172 158.77842 35222 ft 478 kts 30°
2026-04-24 14:25 -26.41931 158.82420 35211 ft 478 kts 30°
2026-04-24 14:25 -26.36691 158.86993 35209 ft 477 kts 30°
2026-04-24 14:26 -26.31470 158.91546 35219 ft 475 kts 30°
2026-04-24 14:26 -26.26262 158.96078 35218 ft 475 kts 30°
2026-04-24 14:27 -26.21052 159.00606 35218 ft 475 kts 30°
2026-04-24 14:27 -26.15866 159.05109 35215 ft 475 kts 30°
2026-04-24 14:28 -26.10651 159.09633 35211 ft 475 kts 30°
2026-04-24 14:28 -26.05440 159.14148 35214 ft 475 kts 30°
2026-04-24 14:29 -26.00224 159.18662 35208 ft 475 kts 30°
2026-04-24 14:29 -25.95013 159.23168 35198 ft 473 kts 29°
2026-04-24 14:30 -25.90691 159.26901 35197 ft 474 kts 29°
2026-04-24 14:30 -25.84599 159.32153 35205 ft 475 kts 29°
2026-04-24 14:31 -25.79375 159.36653 35199 ft 475 kts 29°
2026-04-24 14:31 -25.74185 159.41119 35200 ft 475 kts 29°
2026-04-24 14:32 -25.68963 159.45608 35195 ft 475 kts 29°
2026-04-24 14:32 -25.63738 159.50093 35196 ft 475 kts 29°
2026-04-24 14:33 -25.58510 159.54577 35183 ft 475 kts 29°
2026-04-24 14:33 -25.53288 159.59052 35192 ft 474 kts 29°
2026-04-24 14:34 -25.48074 159.63513 35190 ft 473 kts 29°
2026-04-24 14:34 -25.42892 159.67940 35190 ft 473 kts 29°
2026-04-24 14:35 -25.37675 159.72393 35187 ft 474 kts 29°
2026-04-24 14:35 -25.32446 159.76851 35183 ft 474 kts 29°
2026-04-24 14:36 -25.27221 159.81303 35182 ft 474 kts 29°
2026-04-24 14:36 -25.21989 159.85754 35181 ft 474 kts 29°
2026-04-24 14:37 -25.16801 159.90167 35177 ft 472 kts 28°
2026-04-24 14:37 -25.11599 159.94582 35175 ft 472 kts 28°
2026-04-24 14:38 -25.06388 159.98998 35177 ft 472 kts 28°
2026-04-24 14:38 -25.01173 160.03415 35175 ft 472 kts 28°
2026-04-24 14:39 -24.95958 160.07828 35169 ft 472 kts 28°
2026-04-24 14:39 -24.90777 160.12207 35170 ft 472 kts 28°
2026-04-24 14:40 -24.85560 160.16612 35164 ft 472 kts 28°
2026-04-24 14:40 -24.80346 160.21010 35150 ft 471 kts 28°
2026-04-24 14:41 -24.75345 160.25229 35156 ft 467 kts 28°
2026-04-24 14:41 -24.70184 160.29572 35159 ft 467 kts 28°
2026-04-24 14:42 -24.65895 160.33175 35163 ft 467 kts 28°
2026-04-24 14:42 -24.59894 160.38214 35167 ft 466 kts 28°
2026-04-24 14:43 -24.54743 160.42538 35147 ft 466 kts 28°
2026-04-24 14:43 -24.49588 160.46854 35158 ft 466 kts 28°
2026-04-24 14:44 -24.44435 160.51163 35149 ft 466 kts 28°
2026-04-24 14:44 -24.39281 160.55472 35146 ft 465 kts 27°
2026-04-24 14:45 -24.34182 160.59740 35132 ft 458 kts 27°
2026-04-24 14:45 -24.29136 160.63952 35143 ft 455 kts 27°
2026-04-24 14:46 -24.24133 160.68115 35137 ft 454 kts 27°
2026-04-24 14:46 -24.19096 160.72303 35137 ft 454 kts 27°
2026-04-24 14:47 -24.14878 160.75810 35138 ft 454 kts 27°
2026-04-24 14:47 -24.12976 160.77391 35135 ft 454 kts 27°
2026-04-24 14:48 -24.07941 160.81574 35114 ft 454 kts 27°
2026-04-24 14:48 -24.02904 160.85754 35132 ft 454 kts 27°
2026-04-24 14:49 -23.97905 160.89899 35127 ft 452 kts 26°
2026-04-24 14:49 -23.95386 160.91990 35129 ft 449 kts 26°
2026-04-24 14:50 -23.92451 160.94424 35128 ft 447 kts 26°
2026-04-24 14:50 -23.87489 160.98527 35124 ft 447 kts 26°
2026-04-24 14:51 -23.82528 161.02622 35128 ft 447 kts 26°
2026-04-24 14:51 -23.77572 161.06711 35119 ft 446 kts 26°
2026-04-24 14:52 -23.72617 161.10800 35120 ft 445 kts 26°
2026-04-24 14:52 -23.67700 161.14851 35121 ft 445 kts 26°
2026-04-24 14:53 -23.62756 161.18921 35118 ft 445 kts 26°
2026-04-24 14:53 -23.57806 161.22992 35095 ft 445 kts 26°
2026-04-24 14:54 -23.52877 161.27045 35115 ft 443 kts 26°
2026-04-24 14:54 -23.47959 161.31081 35111 ft 442 kts 26°
2026-04-24 14:55 -23.43866 161.34437 35115 ft 442 kts 26°
2026-04-24 14:55 -23.38151 161.39118 35114 ft 442 kts 26°
2026-04-24 14:56 -23.33237 161.43140 35104 ft 442 kts 26°
2026-04-24 14:56 -23.28313 161.47166 35105 ft 442 kts 26°
2026-04-24 14:57 -23.23392 161.51186 35096 ft 442 kts 26°
2026-04-24 14:57 -23.18470 161.55203 35100 ft 442 kts 26°
2026-04-24 14:58 -23.14381 161.58538 35095 ft 441 kts 26°
2026-04-24 14:58 -23.08689 161.63178 35104 ft 440 kts 26°
2026-04-24 14:59 -23.04584 161.66519 35100 ft 439 kts 26°
2026-04-24 14:59 -22.99717 161.70475 35097 ft 439 kts 26°
2026-04-24 15:00 -22.94815 161.74456 35095 ft 441 kts 26°
2026-04-24 15:00 -22.89901 161.78443 35096 ft 441 kts 26°
2026-04-24 15:01 -22.84977 161.82437 35099 ft 441 kts 26°
2026-04-24 15:01 -22.80058 161.86425 35090 ft 441 kts 26°
2026-04-24 15:02 -22.75134 161.90411 35089 ft 441 kts 26°
2026-04-24 15:02 -22.70216 161.94388 35089 ft 441 kts 26°
2026-04-24 15:03 -22.65285 161.98370 35086 ft 443 kts 27°
2026-04-24 15:03 -22.60371 162.02337 35087 ft 444 kts 27°
2026-04-24 15:04 -22.55424 162.06328 35074 ft 444 kts 27°
2026-04-24 15:04 -22.50472 162.10320 35086 ft 444 kts 27°
2026-04-24 15:05 -22.45519 162.14307 35086 ft 444 kts 27°
2026-04-24 15:05 -22.40565 162.18292 35062 ft 443 kts 27°
2026-04-24 15:06 -22.35600 162.22279 35072 ft 445 kts 27°
2026-04-24 15:06 -22.30625 162.26274 35044 ft 445 kts 27°
2026-04-24 15:07 -22.25656 162.30258 35068 ft 449 kts 27°
2026-04-24 15:07 -22.20641 162.34278 35067 ft 449 kts 27°
2026-04-24 15:08 -22.15625 162.38296 35069 ft 449 kts 27°
2026-04-24 15:08 -22.10607 162.42310 35062 ft 450 kts 27°
2026-04-24 15:09 -22.05531 162.46360 35062 ft 456 kts 27°
2026-04-24 15:09 -22.00436 162.50431 35056 ft 455 kts 27°
2026-04-24 15:10 -21.95343 162.54498 35058 ft 455 kts 27°
2026-04-24 15:10 -21.90254 162.58556 35056 ft 455 kts 27°
2026-04-24 15:11 -21.85154 162.62616 35055 ft 457 kts 28°
2026-04-24 15:11 -21.80047 162.66673 35054 ft 462 kts 28°
2026-04-24 15:12 -21.74839 162.70808 35049 ft 467 kts 28°
2026-04-24 15:12 -21.67000 162.77040 35048 ft 466 kts 28°
2026-04-24 15:13 -21.61786 162.81177 35039 ft 466 kts 28°
2026-04-24 15:13 -21.56560 162.85318 35039 ft 466 kts 28°
2026-04-24 15:14 -21.51329 162.89457 35037 ft 468 kts 28°
2026-04-24 15:14 -21.46070 162.93614 35037 ft 470 kts 28°
2026-04-24 15:15 -21.40806 162.97774 35036 ft 471 kts 28°
2026-04-24 15:15 -21.35544 163.01908 35037 ft 471 kts 27°
2026-04-24 15:16 -21.30184 163.05927 35031 ft 470 kts 26°
2026-04-24 15:16 -21.24805 163.09908 35013 ft 470 kts 26°
2026-04-24 15:17 -21.19406 163.13924 35031 ft 472 kts 26°
2026-04-24 15:17 -21.14015 163.17952 35028 ft 472 kts 26°
2026-04-24 15:18 -21.08623 163.21983 35031 ft 472 kts 26°
2026-04-24 15:18 -21.03231 163.26011 35019 ft 472 kts 26°
2026-04-24 15:19 -20.97874 163.30007 35023 ft 472 kts 26°
2026-04-24 15:19 -20.92503 163.34013 35016 ft 468 kts 26°
2026-04-24 15:20 -20.87177 163.37981 35020 ft 466 kts 26°
2026-04-24 15:20 -20.81855 163.41936 35020 ft 466 kts 26°
2026-04-24 15:21 -20.76533 163.45889 35020 ft 466 kts 26°
2026-04-24 15:21 -20.71209 163.49841 35018 ft 466 kts 26°
2026-04-24 15:22 -20.65882 163.53793 35018 ft 466 kts 26°
2026-04-24 15:23 -20.57889 163.59717 35017 ft 466 kts 26°
2026-04-24 15:23 -20.49891 163.65636 35007 ft 466 kts 26°
2026-04-24 15:25 -20.37532 163.74770 35006 ft 464 kts 26°
2026-04-24 15:26 -20.23283 163.85272 35009 ft 467 kts 26°
2026-04-24 15:27 -20.07226 163.97086 35008 ft 468 kts 26°
2026-04-24 15:29 -19.91110 164.08909 35003 ft 470 kts 26°
2026-04-24 15:31 -19.72245 164.22713 34998 ft 472 kts 26°
2026-04-24 15:33 -19.50589 164.38509 34992 ft 473 kts 26°
2026-04-24 15:34 -19.36993 164.48397 34991 ft 476 kts 27°
2026-04-24 15:35 -19.23377 164.58283 34994 ft 476 kts 27°
2026-04-24 15:36 -19.17920 164.62240 34987 ft 476 kts 27°
2026-04-24 15:36 -19.09714 164.68180 34988 ft 478 kts 27°
2026-04-24 15:37 -19.04214 164.72157 34978 ft 479 kts 27°
2026-04-24 15:37 -18.98708 164.76139 34986 ft 480 kts 27°
2026-04-24 15:38 -18.93227 164.80099 34985 ft 480 kts 27°
2026-04-24 15:38 -18.87714 164.84077 34984 ft 480 kts 27°
2026-04-24 15:39 -18.82200 164.88053 34964 ft 480 kts 28°
2026-04-24 15:39 -18.76665 164.92038 34978 ft 483 kts 28°
2026-04-24 15:40 -18.71119 164.96031 34980 ft 483 kts 28°
2026-04-24 15:40 -18.65561 165.00030 34980 ft 483 kts 28°
2026-04-24 15:41 -18.60009 165.04021 34977 ft 483 kts 28°
2026-04-24 15:41 -18.54451 165.08013 34975 ft 483 kts 28°
2026-04-24 15:42 -18.48889 165.12002 34967 ft 485 kts 29°
2026-04-24 15:42 -18.43303 165.16006 34968 ft 486 kts 29°
2026-04-24 15:43 -18.37718 165.20009 34968 ft 486 kts 29°
2026-04-24 15:43 -18.32160 165.23989 34968 ft 486 kts 29°
2026-04-24 15:44 -18.26566 165.27990 34968 ft 486 kts 29°
2026-04-24 15:44 -18.20975 165.31986 34968 ft 486 kts 29°
2026-04-24 15:45 -18.15371 165.35988 34967 ft 488 kts 29°
2026-04-24 15:45 -18.09742 165.40004 34966 ft 488 kts 29°
2026-04-24 15:46 -18.04121 165.44013 34962 ft 488 kts 29°
2026-04-24 15:46 -17.98498 165.48019 34963 ft 488 kts 29°
2026-04-24 15:47 -17.93824 165.51347 34960 ft 488 kts 29°
2026-04-24 15:47 -17.88196 165.55351 34953 ft 488 kts 29°
2026-04-24 15:48 -17.82557 165.59358 34960 ft 490 kts 29°
2026-04-24 15:48 -17.76905 165.63374 34960 ft 490 kts 29°
2026-04-24 15:49 -17.71247 165.67390 34967 ft 490 kts 29°
2026-04-24 15:49 -17.65632 165.71374 34968 ft 490 kts 29°
2026-04-24 15:50 -17.59971 165.75386 34948 ft 490 kts 29°
2026-04-24 15:50 -17.54321 165.79387 34955 ft 490 kts 30°
2026-04-24 15:51 -17.48652 165.83397 34953 ft 491 kts 30°
2026-04-24 15:51 -17.42975 165.87411 34947 ft 492 kts 30°
2026-04-24 15:52 -17.37340 165.91393 34957 ft 492 kts 30°
2026-04-24 15:52 -17.31669 165.95397 34959 ft 492 kts 30°
2026-04-24 15:53 -17.25992 165.99402 34951 ft 492 kts 30°
2026-04-24 15:53 -17.20320 166.03400 34954 ft 491 kts 30°
2026-04-24 15:54 -17.14646 166.07397 34943 ft 491 kts 30°
2026-04-24 15:54 -17.08976 166.11387 34950 ft 491 kts 30°
2026-04-24 15:55 -17.03302 166.15379 34949 ft 491 kts 30°
2026-04-24 15:55 -16.97627 166.19367 34945 ft 492 kts 30°
2026-04-24 15:56 -16.91940 166.23361 34929 ft 492 kts 31°
2026-04-24 15:56 -16.86248 166.27354 34943 ft 493 kts 31°
2026-04-24 15:57 -16.80580 166.31329 34936 ft 493 kts 31°
2026-04-24 15:57 -16.74880 166.35325 34940 ft 494 kts 31°
2026-04-24 15:58 -16.69172 166.39321 34939 ft 493 kts 31°
2026-04-24 15:58 -16.63470 166.43311 34936 ft 493 kts 31°
2026-04-24 15:59 -16.57801 166.47275 34926 ft 494 kts 31°
2026-04-24 15:59 -16.52066 166.51281 34931 ft 497 kts 30°
2026-04-24 16:00 -16.46322 166.55292 34933 ft 497 kts 30°
2026-04-24 16:00 -16.40581 166.59298 34933 ft 497 kts 30°
2026-04-24 16:01 -16.34836 166.63303 34931 ft 497 kts 30°
2026-04-24 16:01 -16.29094 166.67304 34925 ft 497 kts 30°
2026-04-24 16:02 -16.23341 166.71309 34923 ft 499 kts 30°
2026-04-24 16:02 -16.17554 166.75334 34923 ft 500 kts 30°
2026-04-24 16:03 -16.11768 166.79357 34924 ft 500 kts 30°
2026-04-24 16:03 -16.05984 166.83376 34923 ft 500 kts 30°
2026-04-24 16:04 -16.00228 166.87372 34919 ft 500 kts 30°
2026-04-24 16:04 -15.94432 166.91392 34912 ft 501 kts 30°
2026-04-24 16:05 -15.85740 166.97417 34922 ft 501 kts 29°
2026-04-24 16:06 -15.77038 167.03445 34927 ft 501 kts 29°
2026-04-24 16:07 -15.68348 167.09469 34933 ft 501 kts 29°
2026-04-24 16:07 -15.59687 167.15457 34937 ft 500 kts 29°
2026-04-24 16:08 -15.51049 167.21536 34939 ft 503 kts 34°
2026-04-24 16:09 -15.43155 167.28768 34916 ft 505 kts 38°
2026-04-24 16:09 -15.37996 167.33724 34911 ft 505 kts 38°
2026-04-24 16:11 -15.25564 167.45535 34906 ft 505 kts 38°
2026-04-24 16:11 -15.20368 167.50463 34908 ft 506 kts 38°
2026-04-24 16:12 -15.12583 167.57847 34903 ft 506 kts 38°
2026-04-24 16:13 -15.04826 167.65196 34906 ft 506 kts 39°
2026-04-24 16:14 -14.94431 167.75032 34897 ft 506 kts 39°
2026-04-24 16:14 -14.86616 167.82417 34903 ft 507 kts 39°
2026-04-24 16:15 -14.78832 167.89767 34903 ft 507 kts 39°
2026-04-24 16:16 -14.71005 167.97150 34898 ft 507 kts 39°
2026-04-24 16:17 -14.57957 168.09462 34898 ft 509 kts 41°
2026-04-24 16:18 -14.47559 168.19341 34895 ft 509 kts 39°
2026-04-24 16:19 -14.39643 168.26668 34898 ft 509 kts 39°
2026-04-24 16:20 -14.31769 168.34038 34895 ft 509 kts 40°
2026-04-24 16:20 -14.23934 168.41401 34893 ft 510 kts 40°
2026-04-24 16:21 -14.16067 168.48779 34896 ft 510 kts 40°
2026-04-24 16:22 -14.10815 168.53694 34891 ft 510 kts 40°
2026-04-24 16:22 -14.02936 168.61061 34892 ft 510 kts 40°
2026-04-24 16:23 -13.97688 168.65965 34893 ft 510 kts 40°
2026-04-24 16:24 -13.89801 168.73327 34887 ft 510 kts 40°
2026-04-24 16:24 -13.84417 168.77926 34871 ft 502 kts 26°
2026-04-24 16:25 -13.78862 168.82248 34882 ft 499 kts 28°
2026-04-24 16:25 -13.76263 168.84629 34904 ft 503 kts 43°
2026-04-24 16:25 -13.73828 168.87234 34889 ft 508 kts 45°
2026-04-24 16:26 -13.66378 168.95075 34884 ft 510 kts 41°
2026-04-24 16:27 -13.58552 169.02483 34883 ft 510 kts 40°
2026-04-24 16:27 -13.53275 169.07357 34884 ft 510 kts 40°
2026-04-24 16:28 -13.47995 169.12242 34885 ft 510 kts 40°
2026-04-24 16:28 -13.40116 169.19550 34884 ft 511 kts 40°
2026-04-24 16:29 -13.34842 169.24442 34884 ft 511 kts 40°
2026-04-24 16:30 -13.24293 169.34216 34883 ft 511 kts 40°
2026-04-24 16:30 -13.19044 169.39074 34883 ft 511 kts 40°
2026-04-24 16:31 -13.13760 169.43962 34882 ft 511 kts 40°
2026-04-24 16:31 -13.08480 169.48844 34881 ft 510 kts 40°
2026-04-24 16:32 -13.03201 169.53722 34881 ft 511 kts 40°
2026-04-24 16:32 -12.97917 169.58601 34881 ft 511 kts 40°
2026-04-24 16:33 -12.92635 169.63475 34881 ft 510 kts 40°
2026-04-24 16:33 -12.87358 169.68342 34881 ft 510 kts 40°
2026-04-24 16:34 -12.82074 169.73212 34878 ft 510 kts 40°
2026-04-24 16:34 -12.76826 169.78047 34878 ft 510 kts 40°
2026-04-24 16:35 -12.71545 169.82908 34875 ft 511 kts 40°
2026-04-24 16:35 -12.66258 169.87774 34875 ft 511 kts 40°
2026-04-24 16:36 -12.60973 169.92634 34876 ft 511 kts 40°
2026-04-24 16:36 -12.56579 169.96672 34871 ft 511 kts 40°
2026-04-24 16:37 -12.51289 170.01532 34873 ft 510 kts 40°
2026-04-24 16:37 -12.45147 170.07170 34873 ft 510 kts 40°
2026-04-24 16:38 -12.40718 170.11234 34873 ft 510 kts 40°
2026-04-24 16:38 -12.35436 170.16078 34873 ft 510 kts 40°
2026-04-24 16:39 -12.30178 170.20897 34870 ft 511 kts 40°
2026-04-24 16:39 -12.24874 170.25755 34870 ft 511 kts 40°
2026-04-24 16:40 -12.19569 170.30611 34870 ft 511 kts 40°
2026-04-24 16:40 -12.14271 170.35460 34870 ft 511 kts 40°
2026-04-24 16:41 -12.08972 170.40306 34870 ft 511 kts 40°
2026-04-24 16:41 -12.03668 170.45153 34870 ft 511 kts 40°
2026-04-24 16:42 -11.98361 170.50001 34867 ft 511 kts 40°
2026-04-24 16:42 -11.93059 170.54842 34867 ft 511 kts 40°
2026-04-24 16:43 -11.87774 170.59663 34865 ft 513 kts 40°
2026-04-24 16:43 -11.82445 170.64523 34864 ft 513 kts 40°
2026-04-24 16:44 -11.77122 170.69376 34864 ft 513 kts 40°
2026-04-24 16:44 -11.71793 170.74230 34862 ft 513 kts 40°
2026-04-24 16:45 -11.66501 170.79049 34865 ft 513 kts 40°
2026-04-24 16:45 -11.61177 170.83894 34865 ft 513 kts 40°
2026-04-24 16:46 -11.55852 170.88736 34862 ft 513 kts 40°
2026-04-24 16:46 -11.50516 170.93586 34859 ft 514 kts 40°
2026-04-24 16:47 -11.45174 170.98440 34857 ft 514 kts 40°
2026-04-24 16:47 -11.39830 171.03293 34856 ft 515 kts 40°
2026-04-24 16:48 -11.34481 171.08148 34859 ft 515 kts 40°
2026-04-24 16:48 -11.29134 171.12999 34856 ft 515 kts 40°
2026-04-24 16:49 -11.23781 171.17852 34856 ft 515 kts 40°
2026-04-24 16:49 -11.18468 171.22667 34856 ft 515 kts 40°
2026-04-24 16:50 -11.13128 171.27502 34853 ft 512 kts 41°
2026-04-24 16:50 -11.07799 171.32327 34853 ft 512 kts 41°
2026-04-24 16:51 -11.02472 171.37146 34854 ft 512 kts 41°
2026-04-24 16:51 -10.97146 171.41964 34853 ft 512 kts 41°
2026-04-24 16:52 -10.91820 171.46777 34853 ft 512 kts 41°
2026-04-24 16:52 -10.86528 171.51558 34854 ft 512 kts 41°
2026-04-24 16:53 -10.81197 171.56372 34854 ft 512 kts 41°
2026-04-24 16:53 -10.75864 171.61185 34854 ft 512 kts 41°
2026-04-24 16:54 -10.70535 171.65992 34853 ft 512 kts 41°
2026-04-24 16:54 -10.65200 171.70803 34854 ft 513 kts 41°
2026-04-24 16:55 -10.59860 171.75615 34854 ft 513 kts 41°
2026-04-24 16:55 -10.54556 171.80393 34854 ft 513 kts 41°
2026-04-24 16:56 -10.49210 171.85206 34853 ft 513 kts 41°
2026-04-24 16:56 -10.43865 171.90016 34854 ft 513 kts 41°
2026-04-24 16:57 -10.38525 171.94819 34853 ft 512 kts 41°
2026-04-24 16:57 -10.33184 171.99622 34854 ft 513 kts 41°
2026-04-24 16:58 -10.27842 172.04422 34853 ft 512 kts 41°
2026-04-24 16:58 -10.22499 172.09221 34854 ft 513 kts 41°
2026-04-24 16:59 -10.17187 172.13990 34853 ft 513 kts 41°
2026-04-24 17:00 -10.09158 172.21194 34855 ft 513 kts 41°
2026-04-24 17:00 -10.01144 172.28380 34852 ft 513 kts 41°
2026-04-24 17:01 -9.93121 172.35569 34851 ft 512 kts 41°
2026-04-24 17:02 -9.85135 172.42720 34850 ft 512 kts 42°
2026-04-24 17:02 -9.79805 172.47491 35159 ft 508 kts 41°
2026-04-24 17:03 -9.74515 172.52199 35661 ft 504 kts 41°
2026-04-24 17:03 -9.71875 172.54541 35841 ft 503 kts 41°
2026-04-24 17:03 -9.69244 172.56876 36000 ft 503 kts 41°
2026-04-24 17:04 -9.66609 172.59214 36155 ft 503 kts 42°
2026-04-24 17:04 -9.61350 172.63885 36459 ft 502 kts 41°
2026-04-24 17:04 -9.58761 172.66184 36608 ft 502 kts 41°
2026-04-24 17:05 -9.56132 172.68518 36750 ft 501 kts 41°
2026-04-24 17:05 -9.53506 172.70849 36842 ft 502 kts 41°
2026-04-24 17:06 -9.45568 172.77892 36852 ft 507 kts 41°
2026-04-24 17:06 -9.37603 172.84956 36850 ft 506 kts 42°
2026-04-24 17:07 -9.32303 172.89652 36856 ft 506 kts 42°
2026-04-24 17:08 -9.21713 172.99033 36854 ft 506 kts 42°
2026-04-24 17:08 -9.16454 173.03688 36856 ft 506 kts 42°
2026-04-24 17:09 -9.05847 173.13071 36856 ft 506 kts 41°
2026-04-24 17:10 -8.95262 173.22426 36857 ft 505 kts 42°
2026-04-24 17:12 -8.74139 173.41075 36854 ft 505 kts 42°